Wind_Speed
15 13 11 11 11 11 9 8 8 8 9 9 12 8 8 10 12 14 3 8 5 1 5 4 2 1 3 1 2 4 2 5 4 4 3 1 2 1 3 2 5 6 5 3 3 3 5 4 3 5 5 3 7 6
15 14 13 11 12 12 11 11 10 10 11 8 10 8 8 9 10 12 3 9 8 4 5 7 18 20 11 6 2 0 2 1 3 4 2 2 2 2 2 1 2 1 5 5 6 5 3 2 4 0 5 6 6 6
16 15 14 12 11 11 11 10 12 12 11 9 8 6 7 7 8 10 7 12 3 2 4 4 3 8 5 3 4 3 1 4 3 3 4 2 3 3 2 2 2 4 3 4 3 2 3 2 1 4 3 4 6 6
17 15 14 13 10 9 9 9 9 8 8 8 6 6 6 6 7 9 7 10 2 1 2 5 9 7 6 4 8 4 6 5 6 3 3 2 2 2 3 3 3 4 3 5 1 3 2 5 6 6 5 6 5 6
18 16 15 12 9 8 6 7 7 7 6 7 6 6 6 6 7 9 4 5 8 0 2 4 16 6 2 4 7 6 8 4 3 3 3 2 1 3 2 2 1 2 5 4 5 8 6 5 11 9 9 10 9 9
19 17 15 12 8 6 5 6 8 7 6 5 6 7 6 7 6 2 3 5 8 3 2 3 5 5 2 4 5 4 3 3 3 3 2 2 2 3 3 2 5 4 4 5 3 3 4 2 6 11 10 10 12 12
20 19 16 11 8 5 5 6 8 6 4 5 5 5 5 5 5 1 3 2 9 5 2 3 4 4 2 4 3 2 5 2 3 2 1 1 1 4 3 3 6 5 5 4 4 7 1 3 5 11 10 15 17 18
22 19 16 11 8 5 4 5 7 4 3 3 4 5 4 5 6 3 1 1 4 1 2 1 4 3 2 1 2 2 2 3 4 1 1 1 2 2 0 6 4 3 3 4 6 4 4 2 6 9 9 11 6 7
23 20 16 12 8 7 4 5 5 2 3 2 2 2 2 2 2 1 1 4 4 1 2 1 2 3 3 1 1 3 3 2 2 0 2 3 1 3 7 6 6 7 7 7 4 7 4 4 6 6 5 6 6 7
24 20 16 12 9 7 3 4 2 2 2 2 1 1 1 1 2 3 1 3 3 2 2 2 1 2 3 1 1 2 2 1 1 4 2 2 4 4 5 7 7 6 6 7 5 2 3 3 6 7 10 11 14 13
24 20 15 11 9 6 3 2 2 4 4 2 1 1 2 2 2 3 1 1 1 2 3 3 4 2 1 3 2 1 2 0 1 4 2 1 3 4 4 5 4 5 7 8 6 5 10 7 7 8 8 12 15 15
24 19 14 11 9 6 3 4 7 3 3 1 2 4 3 2 3 1 2 2 3 4 2 4 5 4 1 2 3 1 2 2 4 1 2 2 4 4 4 4 5 3 6 6 12 10 10 10 16 16 13 15 20 23
22 17 13 11 10 7 6 6 8 5 2 1 1 2 3 1 2 4 5 3 2 3 3 3 2 3 2 3 3 2 2 4 1 1 3 5 3 3 4 2 4 6 7 7 6 9 12 12 13 15 14 13 13 17
20 17 14 12 10 8 8 8 9 4 2 1 3 2 3 3 4 5 4 4 5 3 2 2 3 3 1 3 2 3 4 1 1 2 5 3 5 5 5 3 2 4 6 6 9 12 10 11 12 10 10 6 6 8
18 15 13 11 11 9 10 7 9 3 1 1 2 3 6 5 4 4 4 3 3 2 3 2 3 3 3 3 1 2 1 3 4 4 4 4 5 5 5 4 3 3 5 7 8 6 5 7 8 7 7 9 9 9
16 12 10 11 11 10 12 9 6 2 1 2 3 3 3 1 4 3 1 3 1 3 1 3 4 5 4 3 2 5 4 5 4 3 3 4 5 4 4 4 4 6 12 10 10 9 7 7 9 8 6 8 11 11
13 4 11 13 15 13 13 4 3 2 2 3 4 3 3 4 5 3 1 3 2 4 2 2 4 4 3 0 2 4 4 3 3 4 3 5 6 5 5 6 5 8 13 12 10 8 7 8 7 7 7 13 14 15
4 11 15 18 19 17 4 2 2 2 4 4 3 3 3 3 2 4 2 1 2 3 4 3 3 3 5 4 3 2 3 3 3 2 3 2 3 6 10 9 9 10 11 11 10 10 9 8 8 13 15 17 16 18
15 16 16 20 15 4 4 3 3 2 4 3 3 3 3 3 4 4 2 2 2 3 5 3 4 4 4 3 4 4 3 3 2 3 4 5 7 9 9 9 9 10 10 9 10 11 12 12 15 17 20 22 19 26
15 16 20 16 5 2 2 2 4 2 3 3 2 3 3 3 3 1 1 2 3 4 2 3 4 4 4 4 4 3 4 4 7 7 7 3 7 8 10 12 12 12 10 8 10 12 14 16 20 22 24 21 17 20
16 12 14 8 1 1 2 1 3 4 3 3 2 3 4 1 3 3 3 4 2 3 4 4 4 5 7 4 11 11 9 12 8 8 4 3 8 13 12 13 11 11 10 11 12 17 17 20 26 26 23 17 14 12
8 14 5 5 1 2 3 6 3 3 2 3 3 3 2 2 3 3 3 2 4 4 5 4 4 5 4 4 8 23 23 25 19 15 12 9 3 4 6 14 10 12 18 20 17 18 23 28 28 25 17 14 13 10
11 7 4 4 2 1 5 2 3 3 3 3 1 2 2 2 3 2 3 4 4 5 9 9 11 15 12 13 13 19 25 23 13 14 16 17 15 11 10 12 14 17 14 23 22 21 22 24 23 16 14 14 13 13
5 5 3 3 3 3 1 3 3 2 2 2 2 3 3 3 1 1 3 3 4 2 5 7 9 3 2 4 5 9 21 28 19 16 12 13 10 16 21 21 19 20 23 25 25 28 30 27 19 19 17 14 13 12
3 2 3 4 2 2 2 3 3 1 3 3 2 3 3 1 1 3 3 4 2 3 4 3 4 6 5 4 4 12 20 25 15 8 20 22 21 16 14 16 18 21 18 18 26 25 26 23 20 22 19 16 15 17
1 4 7 4 3 4 3 2 4 6 3 3 4 3 0 1 2 4 3 2 2 2 2 4 5 4 4 9 4 4 18 24 25 13 18 17 19 16 8 5 4 20 21 25 28 26 20 20 22 22 20 20 20 19
2 3 4 3 2 2 3 3 3 2 3 4 2 2 1 2 4 4 2 2 2 2 2 1 7 8 6 8 13 15 8 16 23 20 19 17 18 19 24 15 13 25 23 17 21 23 21 20 19 18 20 21 22 22
3 3 4 1 3 3 3 2 3 3 3 2 1 3 5 5 3 3 4 4 8 8 5 6 7 8 13 18 13 9 7 14 20 21 17 15 14 17 21 24 22 20 20 19 17 20 22 19 18 20 21 19 18 16
3 3 2 4 5 4 5 6 4 3 2 2 1 2 3 2 3 3 6 7 5 5 5 6 6 4 6 13 13 11 12 16 16 7 6 4 1 11 15 17 18 22 23 20 21 23 24 21 22 24 22 18 15 11
4 4 3 4 3 6 4 5 3 1 1 3 3 3 3 3 13 22 23 18 10 9 4 4 5 6 6 7 6 5 12 13 15 13 5 5 7 11 14 15 16 12 15 18 19 19 19 21 23 22 20 18 17 15
2 4 4 4 3 3 4 3 3 3 3 5 6 5 8 4 13 20 18 16 16 13 5 4 6 7 6 8 7 3 5 13 19 18 15 11 8 7 8 8 6 10 12 12 15 18 23 25 26 26 25 23 22 20
4 5 3 2 3 4 2 2 3 4 4 4 4 4 2 2 3 4 7 9 9 7 11 10 12 9 5 5 6 8 8 7 13 14 13 10 9 8 8 7 4 5 4 6 10 13 16 19 23 27 29 27 23 18
3 2 2 1 3 3 3 2 3 3 3 4 5 5 5 5 5 4 6 11 13 14 16 15 13 12 10 12 8 7 9 13 13 13 14 11 5 6 9 6 1 3 5 7 9 11 15 17 18 15 13 14 15 13
Wind_Direction
266 262 269 275 278 277 275 285 302 323 331 343 340 352 350 349 348 352 343 36 21 175 278 200 271 251 330 14 108 275 16 6 37 62 97 205 114 231 75 157 183 161 147 186 90 91 271 164 68 160 196 74 149 170
262 260 264 274 277 282 277 262 276 291 304 321 326 349 349 349 346 351 329 1 328 177 245 288 283 276 243 230 177 277 128 145 172 93 65 98 66 54 134 187 11 23 172 180 165 210 252 316 236 35 140 149 175 160
252 253 260 272 279 281 284 270 273 279 290 294 312 335 343 342 339 354 336 357 354 17 300 358 347 330 333 261 322 89 0 221 65 136 152 146 88 126 116 256 75 336 129 99 86 218 174 196 91 139 142 142 150 159
246 247 255 266 276 282 283 282 281 279 277 280 288 310 323 329 328 339 346 350 356 136 79 283 329 311 314 354 43 75 124 74 94 86 92 119 128 156 196 182 139 203 90 136 260 274 13 278 232 176 154 139 135 154
240 240 249 256 268 269 281 289 293 285 275 266 278 292 302 311 317 319 299 54 12 125 209 278 313 338 305 72 59 94 105 99 66 52 67 225 163 107 10 76 295 178 172 150 220 208 176 218 209 159 158 178 180 168
231 233 239 245 254 252 269 289 295 283 271 258 273 289 286 302 326 341 22 226 7 349 89 344 310 302 319 61 73 86 74 88 86 117 200 231 254 109 104 165 255 232 239 184 227 196 183 10 172 170 178 179 188 185
221 225 228 231 229 232 262 289 294 281 257 247 278 283 279 287 309 187 198 291 319 324 78 331 333 287 324 46 21 35 42 68 105 137 72 132 7 76 109 171 232 220 225 202 175 119 23 209 210 182 183 191 186 200
213 215 217 212 217 227 264 291 299 281 234 243 273 271 268 277 287 283 83 338 321 268 78 101 274 350 22 43 5 4 54 26 17 133 46 170 21 63 233 246 232 243 324 323 193 220 179 206 141 181 164 154 183 205
206 207 205 206 218 233 251 289 295 262 200 239 264 274 259 221 231 128 272 299 287 232 172 114 156 234 354 35 63 24 57 26 315 124 251 103 352 212 224 210 196 216 188 191 173 201 177 194 198 158 135 160 197 234
200 200 199 203 215 224 238 297 284 204 169 140 99 337 340 179 305 289 63 21 358 335 51 216 139 265 101 40 4 83 25 95 359 255 93 116 243 259 250 223 202 210 195 138 120 157 202 215 185 183 197 196 206 221
192 191 194 197 209 203 223 218 178 132 112 80 7 241 319 334 218 40 7 130 247 259 193 234 179 189 260 135 170 101 164 71 44 270 132 310 284 244 201 208 226 250 208 205 208 215 195 187 182 188 212 215 221 229
187 186 188 193 201 178 199 170 150 121 106 165 277 305 327 40 42 115 247 300 204 226 228 173 203 185 220 113 100 7 112 48 249 235 79 279 254 246 179 221 268 253 215 226 189 182 184 187 192 195 209 215 229 240
180 180 181 192 186 171 175 167 166 153 145 107 28 37 59 294 59 193 200 249 256 223 222 192 145 134 66 59 64 85 85 239 16 14 228 228 265 226 189 224 287 236 235 165 158 184 184 183 195 205 214 226 236 236
175 177 181 186 174 169 169 167 172 165 94 181 144 337 193 230 235 200 197 201 231 201 195 158 118 133 92 78 131 119 238 94 283 267 241 243 219 208 195 218 259 198 195 172 172 183 202 201 209 213 226 235 214 232
172 176 179 175 170 166 169 162 165 153 119 223 188 224 215 234 256 234 221 260 241 167 131 88 55 85 22 109 183 100 221 247 210 232 235 230 199 175 174 184 163 164 157 153 160 173 202 202 206 234 270 257 241 258
165 162 178 168 165 160 158 144 147 169 240 239 239 274 255 307 299 328 224 252 211 151 84 63 109 109 254 178 121 216 172 215 249 230 246 161 171 179 173 194 183 187 168 166 171 177 182 187 208 240 259 247 257 269
152 144 163 158 152 147 142 122 162 214 245 230 242 233 234 245 238 255 244 252 295 93 159 88 102 182 116 230 230 191 204 244 283 287 210 181 171 188 178 164 160 158 166 178 188 198 205 215 229 251 264 271 275 280
124 144 150 151 147 141 139 154 200 213 241 234 231 251 204 236 255 276 236 269 114 148 125 176 142 155 184 205 231 233 237 261 346 303 124 130 185 189 178 175 178 181 182 189 203 218 228 234 246 260 271 281 289 285
139 140 142 146 145 142 145 188 199 257 243 237 251 241 235 248 243 220 246 219 186 129 111 133 200 185 215 204 181 205 226 150 72 312 301 174 178 195 189 193 194 206 206 204 215 233 251 263 266 278 285 291 293 294
133 136 147 159 130 139 167 221 189 238 255 238 224 231 209 214 242 244 282 153 154 127 129 182 210 211 191 201 187 201 192 190 159 218 255 260 196 199 202 200 210 220 224 231 246 254 262 273 278 280 284 293 291 283
124 144 161 176 233 355 279 230 209 219 247 237 241 187 241 193 215 215 229 158 147 200 211 209 213 225 214 172 203 195 177 174 194 200 214 246 223 208 211 222 222 240 237 242 251 265 271 269 280 292 297 290 276 281
129 148 111 178 200 262 251 229 240 269 218 247 296 197 234 225 219 213 161 162 216 217 193 189 216 220 219 182 193 198 199 195 213 225 234 235 203 191 206 228 217 238 239 245 255 263 276 288 296 297 280 262 262 274
134 138 135 144 207 228 261 260 236 216 220 252 248 237 244 235 228 106 208 216 237 214 202 203 217 216 215 224 192 201 208 202 218 224 230 231 240 256 250 235 238 244 255 264 268 275 280 294 293 262 245 247 257 257
131 157 149 185 185 253 273 244 213 265 275 270 241 257 236 227 148 170 240 238 238 196 186 213 205 144 125 152 187 196 206 210 215 227 221 216 218 240 243 250 257 257 257 270 281 283 283 289 266 236 237 247 250 257
95 228 140 242 224 242 242 251 208 233 248 241 255 276 270 85 214 238 227 262 250 245 231 196 177 199 199 222 227 216 211 197 200 206 227 221 229 262 276 282 274 265 268 278 275 266 269 272 248 241 240 247 257 247
187 209 179 205 210 183 228 222 213 211 221 237 245 255 14 194 242 250 241 251 249 251 241 190 178 174 216 215 200 187 220 219 216 208 226 213 214 225 244 254 265 277 266 265 256 258 260 251 244 240 240 254 254 254
263 230 207 229 232 255 273 255 262 256 232 218 232 247 171 292 248 255 277 236 242 273 309 246 201 204 210 205 225 234 233 219 211 223 238 228 225 231 231 221 224 251 268 280 250 238 236 236 234 232 244 258 257 258
258 282 210 195 209 223 230 280 290 231 228 200 229 216 195 204 245 237 219 255 276 298 272 261 270 239 242 231 232 241 216 211 221 232 255 262 262 253 246 242 252 264 268 276 252 242 230 231 234 230 237 246 259 274
245 255 267 250 235 223 212 198 224 258 182 124 138 279 281 254 303 309 304 304 299 277 298 349 336 321 226 220 235 242 227 199 174 180 202 230 287 247 248 246 260 258 252 257 256 255 240 233 231 234 236 239 249 251
241 176 231 243 222 212 230 188 222 204 200 190 195 284 280 278 292 294 294 290 277 270 301 302 296 221 204 204 220 195 214 221 211 192 176 197 225 264 286 284 291 270 240 245 241 238 235 237 244 250 238 231 235 245
239 183 220 229 248 226 225 232 245 234 216 205 205 229 253 282 295 292 270 264 266 269 251 254 240 206 199 215 224 225 241 213 212 219 222 223 257 282 260 267 248 255 249 249 246 246 255 258 254 251 243 238 242 249
192 211 195 229 268 278 317 235 231 224 218 203 225 200 244 251 270 275 248 224 222 218 233 241 229 223 198 212 261 240 250 230 205 211 220 230 230 249 193 191 161 160 196 254 271 279 276 266 260 255 247 247 253 265
143 143 162 259 284 273 251 230 238 246 216 220 223 199 194 181 228 256 282 293 290 270 217 220 243 267 288 287 278 285 267 245 249 246 241 219 226 176 164 170 178 313 309 309 304 299 286 277 270 277 271 267 271 277
Height
824 824 823 822 822 821 821 820 820 817 815 814 813 810 809 807 806 804 802 801 801 803 794 789 787 789 791 790 794 783 785 780 787 803 809 812 813 809 814 812 816 824 835 841 850 849 846 817 817 830 830 830 833 837
820 821 820 818 818 818 817 818 817 816 814 812 812 810 808 807 806 804 802 801 799 799 793 787 782 782 781 778 781 783 787 787 791 804 810 815 812 819 826 825 812 820 821 830 834 836 821 817 817 815 820 826 832 835
816 817 817 815 815 815 814 814 813 813 812 811 811 810 808 807 806 805 803 801 798 798 791 788 784 780 778 777 774 780 784 784 784 789 806 813 811 820 825 822 811 811 814 826 826 822 820 818 817 817 820 823 828 831
812 812 813 813 812 812 811 811 810 809 810 809 810 809 807 807 806 805 804 803 801 801 803 793 782 779 778 778 776 775 776 780 784 790 803 811 811 811 822 814 816 814 810 825 827 822 821 819 817 817 820 822 826 829
807 809 810 810 809 809 809 808 808 807 807 808 808 807 806 806 805 805 803 804 801 803 806 799 785 779 778 778 777 777 778 783 789 797 804 808 809 810 819 818 816 810 814 822 825 811 813 812 808 813 820 822 824 827
802 805 806 807 807 808 807 807 806 805 805 806 806 806 805 804 804 803 804 805 803 802 802 804 788 782 778 778 779 780 781 784 791 796 804 804 799 806 818 822 808 806 804 803 806 802 806 805 806 810 813 816 820 822
798 801 803 804 805 805 805 805 804 803 803 804 805 804 804 804 804 804 806 804 803 802 802 802 799 784 781 781 783 783 783 788 791 800 799 800 800 805 817 820 801 800 799 798 798 802 806 805 805 807 809 813 816 818
794 797 800 801 802 803 804 804 803 802 802 802 803 803 803 803 803 802 802 802 802 801 801 807 802 793 783 791 792 788 791 792 794 798 802 801 803 808 811 800 798 797 798 797 799 798 799 799 802 805 809 814 818 817
791 794 797 799 800 801 802 802 801 801 801 801 802 802 802 802 803 801 802 802 801 804 804 806 807 806 785 791 792 793 795 803 802 801 804 802 812 809 799 796 797 796 796 795 795 797 799 800 801 805 810 813 815 816
787 791 795 796 798 799 800 800 800 800 800 801 802 803 803 801 801 801 801 802 802 801 802 803 798 799 792 797 799 800 804 809 808 803 799 806 806 794 790 789 788 789 791 794 798 801 801 801 802 805 805 807 808 809
784 789 792 793 796 797 798 799 799 800 800 801 802 802 801 800 801 801 805 806 805 803 801 796 794 795 789 794 795 797 807 811 814 807 802 810 808 793 785 788 787 788 788 790 791 793 794 794 798 801 803 804 805 806
782 786 789 792 794 795 797 798 799 801 801 803 802 802 801 801 806 805 808 805 803 798 792 791 789 787 787 787 794 799 803 810 811 803 803 806 798 786 785 785 785 784 785 785 787 789 790 791 792 795 797 799 800 800
779 784 787 791 793 795 797 798 800 801 802 803 803 803 805 807 814 806 803 802 801 790 786 785 786 784 787 790 801 802 804 812 803 805 803 799 790 784 785 785 784 784 784 785 787 789 790 791 792 793 794 795 795 796
778 782 786 789 791 794 796 798 800 802 802 803 802 814 805 806 802 797 795 792 784 782 782 783 785 787 792 791 800 800 802 802 805 806 799 791 783 781 782 783 784 783 784 785 787 789 790 791 791 792 793 793 793 793
778 782 786 788 791 793 796 798 800 802 802 802 800 801 801 792 788 785 783 781 776 775 778 781 782 786 793 796 801 801 798 802 803 800 791 781 779 780 782 783 783 782 783 785 786 788 789 790 792 792 791 791 791 791
779 783 785 787 789 793 796 799 802 803 803 802 800 796 790 790 786 782 779 779 772 775 777 778 789 800 803 798 798 799 801 801 794 788 780 778 779 780 781 781 781 781 783 785 787 788 789 791 791 791 790 790 789 789
780 781 783 786 789 794 797 800 801 802 801 798 794 791 792 790 788 783 778 776 771 776 785 785 788 791 795 798 798 794 794 787 784 779 774 774 777 779 780 781 781 782 783 785 787 788 788 789 789 790 790 787 787 786
779 780 783 786 790 795 798 799 800 800 797 793 793 788 786 782 781 778 774 773 773 778 780 782 788 789 792 791 792 789 787 783 779 777 775 777 777 778 778 780 781 782 783 785 786 786 786 787 787 787 786 784 783 782
778 781 784 788 792 795 797 799 799 795 791 790 787 784 782 777 772 771 771 771 772 771 776 784 783 789 788 785 782 782 780 775 778 783 779 773 774 777 777 779 780 781 781 782 784 784 785 784 784 783 781 780 780 776
781 783 787 790 793 794 795 796 796 795 790 784 781 779 776 773 768 766 768 770 773 775 778 780 781 777 774 770 770 771 771 771 770 778 775 771 770 774 775 777 777 778 779 780 780 780 780 779 778 777 776 776 774 770
783 786 790 793 794 795 794 790 791 790 784 781 774 774 770 768 768 767 768 768 772 773 772 769 766 762 760 762 764 765 766 769 769 769 768 769 767 769 771 774 774 776 777 776 776 775 775 774 772 771 770 769 768 766
784 789 792 795 795 794 792 787 786 780 780 775 772 768 767 766 765 764 762 766 765 759 757 758 755 754 757 759 759 760 759 762 764 765 765 765 765 767 768 769 771 772 771 770 772 771 770 768 768 767 766 765 765 764
787 789 791 793 794 793 790 784 782 775 777 770 764 763 763 761 757 755 759 756 750 742 741 743 743 744 747 748 752 754 756 758 759 758 759 760 760 763 765 766 767 769 769 766 766 766 766 765 763 762 763 763 762 761
786 788 788 789 791 790 784 779 778 775 771 768 765 759 757 756 754 756 754 749 738 734 736 735 737 742 745 746 748 748 749 751 753 754 756 758 759 760 762 761 761 761 761 760 761 761 760 759 758 759 759 759 759 758
790 789 790 791 785 784 781 773 771 773 769 765 760 757 754 752 753 752 747 739 733 730 728 729 732 734 738 738 737 739 742 745 748 749 750 752 753 754 754 754 754 754 755 756 755 752 751 752 754 754 754 755 754 754
787 784 787 778 777 780 777 771 769 768 767 761 757 753 752 752 751 747 741 730 728 726 724 725 726 731 733 730 731 733 733 736 740 742 741 744 746 749 750 752 751 748 748 749 749 747 748 748 748 749 749 749 750 750
783 775 777 776 775 772 771 767 763 761 758 758 754 752 748 749 746 739 732 727 726 722 722 722 723 724 723 725 726 727 728 730 732 732 734 737 740 742 744 746 746 742 743 743 742 743 743 743 744 745 745 745 745 744
778 772 771 769 774 768 767 764 761 754 749 750 751 746 746 744 740 732 727 722 722 721 720 720 720 721 722 721 722 723 724 727 730 732 734 736 736 737 739 741 741 740 740 740 739 739 738 740 740 740 741 741 740 740
777 773 770 766 764 764 761 761 758 752 746 748 750 748 741 734 730 728 723 722 721 721 720 718 718 718 719 719 720 720 722 724 729 731 732 734 734 733 734 735 735 735 735 735 735 735 736 737 736 735 735 736 736 736
769 767 766 758 756 757 753 751 750 746 746 745 744 741 737 731 726 725 722 720 719 718 719 718 717 717 718 719 718 721 722 723 723 724 728 730 728 729 730 729 728 728 729 729 730 732 733 733 732 732 731 731 731 731
761 760 758 755 751 746 743 742 742 741 740 740 738 740 735 731 723 718 714 714 714 715 716 716 716 715 715 716 717 718 719 718 719 721 723 724 726 726 727 727 726 726 726 727 728 728 728 728 727 726 727 726 725 725
756 755 754 753 751 743 741 741 739 737 734 734 732 731 731 731 728 717 710 710 711 711 712 712 712 711 711 713 713 714 715 715 717 719 721 723 725 725 725 726 726 726 727 727 726 725 723 720 718 717 717 719 721 723
751 752 752 753 750 745 739 738 733 729 728 726 724 722 723 726 726 714 707 706 706 705 707 708 709 710 711 710 711 712 713 714 716 718 719 723 724 724 725 726 726 726 725 724 723 720 717 715 715 716 716 718 719 720